Weather History for Point Mugu, CA

Change the Weather History Date:

Tuesday, April 1, 2014

  Actual Average Record
Temperature  
Mean Temperature 58 °F -  
Max Temperature 64 °F 60 °F 78 °F (2005)
Min Temperature 53 °F 45 °F 39 °F (2008)
Degree Days  
Heating Degree Days 6    
Growing Degree Days 8 (Base 50)    
Moisture  
Dew Point 46 °F    
Average Humidity 66    
Maximum Humidity 87    
Minimum Humidity 48    
Precipitation  
Precipitation 0.01 in - - ()
Sea Level Pressure  
Sea Level Pressure 29.98 in    
Wind  
Wind Speed 13 mph (West)    
Max Wind Speed 24 mph    
Max Gust Speed 31 mph    
Visibility 7 miles    
Events Rain    
Averages and records for this station are not official NWS values.
T = Trace of Precipitation, MM = Missing Value Source: NWS Daily Summary

Daily Weather History Graph

Daily Weather History Graph

Search for Another Location

Airport:

Trip Planner

Search our weather history database for the weather conditions in past years. The results will help you decide how hot, cold, wet, or windy it might be!

Date:

Astronomy

Apr. 01, 2014 Rise Set
Actual Time 6:43 AM PDT 7:17 PM PDT
Civil Twilight 6:18 AM PDT 7:42 PM PDT
Nautical Twilight 5:48 AM PDT 8:12 PM PDT
Astronomical Twilight 5:18 AM PDT 8:42 PM PDT
Moon 7:55 AM PDT (4/1) 9:38 PM PDT (4/1)
Length of Visible Light 13h 24m
Length of Day
12h 33m
Waxing Crescent, 5% of the Moon is Illuminated
Apr 1
Waxing Crescent
Apr 7
First Quarter
Apr 15
Full
Apr 22
Last Quarter
Apr 28
New

Hourly Weather History & Observations

Time (PDT) Temp. Dew Point Humidity Pressure Visibility Wind Dir Wind Speed Gust Speed Precip Events Conditions
12:08 AM 55.9 °F 52.0 °F 87% 29.97 in - West 15.0 mph - 0.00 in Rain Light Rain
12:54 AM 55.0 °F 50.0 °F 83% 29.98 in - West 10.4 mph - 0.00 in Rain Light Rain
1:54 AM 55.9 °F 48.9 °F 77% 29.98 in - West 10.4 mph - 0.00 in Rain Light Rain
2:54 AM 55.0 °F 46.0 °F 72% 29.98 in - West 12.7 mph - 0.00 in Rain Light Rain
3:54 AM 54.0 °F 46.0 °F 75% 29.96 in - West 11.5 mph - 0.00 in Rain Light Rain
4:54 AM 54.0 °F 46.0 °F 75% 29.96 in - West 12.7 mph - 0.00 in Rain Light Rain
5:54 AM 54.0 °F 45.0 °F 72% 29.96 in - West 12.7 mph - 0.00 in Rain Light Rain
6:04 AM 54.0 °F 46.0 °F 75% 29.96 in 7.0 mi West 11.5 mph - 0.00 in   Partly Cloudy
6:54 AM 53.1 °F 46.0 °F 77% 29.97 in 7.0 mi West 11.5 mph - 0.00 in   Partly Cloudy
7:54 AM 55.0 °F 45.0 °F 69% 29.99 in 7.0 mi North 3.5 mph - N/A   Partly Cloudy
8:54 AM 57.9 °F 46.0 °F 65% 30.00 in 7.0 mi WNW 6.9 mph - N/A   Partly Cloudy
9:54 AM 61.0 °F 46.0 °F 58% 30.01 in 7.0 mi West 12.7 mph - N/A   Scattered Clouds
10:54 AM 62.1 °F 46.0 °F 56% 30.03 in 7.0 mi West 11.5 mph - N/A   Partly Cloudy
11:54 AM 63.0 °F 44.1 °F 50% 30.02 in 7.0 mi WSW 15.0 mph - N/A   Partly Cloudy
12:54 PM 64.9 °F 45.0 °F 48% 30.00 in 7.0 mi West 18.4 mph 23.0 mph N/A   Partly Cloudy
1:54 PM 64.9 °F 45.0 °F 48% 29.99 in 7.0 mi West 21.9 mph - N/A   Scattered Clouds
2:54 PM 64.0 °F 45.0 °F 50% 29.98 in 7.0 mi West 21.9 mph - N/A   Scattered Clouds
3:54 PM 64.0 °F 44.1 °F 48% 29.96 in 7.0 mi West 24.2 mph 31.1 mph N/A   Scattered Clouds
4:54 PM 63.0 °F 46.9 °F 56% 29.96 in 7.0 mi West 16.1 mph 26.5 mph N/A   Scattered Clouds
5:54 PM 61.0 °F 45.0 °F 56% 29.96 in 7.0 mi West 17.3 mph - N/A   Scattered Clouds
6:54 PM 59.0 °F 46.0 °F 62% 29.96 in 7.0 mi West 12.7 mph 19.6 mph N/A   Scattered Clouds
7:54 PM 55.9 °F 46.9 °F 72% 29.96 in 7.0 mi WNW 10.4 mph - N/A   Scattered Clouds
8:54 PM 55.9 °F 46.9 °F 72% 29.97 in 7.0 mi WNW 9.2 mph - N/A   Scattered Clouds
9:54 PM 57.0 °F 46.9 °F 69% 29.97 in 7.0 mi West 9.2 mph - N/A   Mostly Cloudy
10:54 PM 55.9 °F 46.0 °F 69% 29.97 in 7.0 mi West 11.5 mph - N/A   Overcast
11:54 PM 53.1 °F 46.0 °F 77% 29.98 in 7.0 mi NW 5.8 mph - 0.01 in Rain Light Rain